KUIPER-00056

导读

KUIPER-00056是美国亚马逊柯伊伯计划的低轨卫星互联网卫星,于2025年6月23日发射,是该星座大规模部署阶段的组网卫星之一。该项目计划发射3236颗低轨卫星,运行于590-630公里轨道,旨在为全球提供高速低延迟互联网接入,融合云通信与边缘计算,服务家庭、应急及企业客户。

Basic Information
目录编号:
64516
目录名称:
KUIPER-00056
国际标识:
2025-134S
轨道中心:
EARTH
卫星名称:
KUIPER-00056
卫星全名:
KUIPER-00056
卫星状态:
在轨 (已飞行446 天)
发射日期:
2025-06-23 UTC
国别 :
美国 (US)
星等 :
--
This satellite is enrolled in the Space Conjunction Data Service (SCDS) and the current flight risk assessment level is: No High Risk
Orbit Information
数据来源 国际轨道数据 AOE轨道数据
星历时间 2026-09-12T06:07:53+0800
9小时前
查看轨道信息
2026-09-10T22:00:00+0800
1天前
查看轨道信息
半长轴 7007.688km 7007.663km
偏心率 0.0000907 0.0001001
轨道倾角 51.903° 51.901°
近地点辐角 98.735° 89.332°
升交点赤经 119.635° 125.557°
平近点角 261.372° 333.708°
近地点 628.915km 628.824km
远地点 630.187km 630.228km
周期 97.302分钟 97.301分钟
每日圈数 14.799283 14.799362
Detailed Information
使用方式:
暂无
2D Orbit Map
3D Orbit Map
Orbit Altitude Analysis Chart
Orbit Inclination Analysis Chart
Orbit Comprehensive Analysis Chart
View Comprehensive Chart
Conjunction Data List
Event ID Objects TCA Miss Dist (km) Collision Risk Probability Collision Risk Index (CRI) Action
CDM_260913-000605-890606-451622
2026-09-13T
00:06:25+0000
1.969 km
极远距离
2.558932E-6 低风险 0.43
Miss Distance Evolution Trend with All Objects
Collision Probability Evolution Trend with All Objects